| time (UTC) | temp F | wind direction | speed knots | gust knots | rain 1hr in | rain 24hr in | rain mn in | humidity % | barometer mb |
| 20260902200332 | 55 | 189 | 6.1 | 20.9 | 0.09 | 0.49 | 0.49 | 94 | 1006.8 |
| 20260902195819 | 55 | 291 | 2.6 | 20.9 | 0.09 | 0.48 | 0.48 | 93 | 1006.7 |
| 20260902195307 | 55 | 158 | 2.6 | 16.5 | 0.09 | 0.47 | 0.47 | 93 | 1006.5 |
| 20260902194753 | 55 | 221 | 1.7 | 16.5 | 0.10 | 0.46 | 0.46 | 93 | 1006.5 |
| 20260902194240 | 56 | 200 | 4.3 | 16.5 | 0.10 | 0.46 | 0.46 | 93 | 1006.3 |
| 20260902193727 | 56 | 266 | 1.7 | 7.8 | 0.12 | 0.45 | 0.45 | 93 | 1006.3 |
| 20260902193214 | 55 | 225 | 2.6 | 17.4 | 0.12 | 0.45 | 0.45 | 93 | 1006.1 |
| 20260902192702 | 56 | 246 | 1.7 | 17.4 | 0.10 | 0.44 | 0.44 | 93 | 1006.0 |
| 20260902192148 | 56 | 239 | 4.3 | 17.4 | 0.10 | 0.42 | 0.42 | 93 | 1006.0 |
| 20260902191635 | 56 | 292 | 3.5 | 13.9 | 0.09 | 0.41 | 0.41 | 93 | 1005.9 |
| 20260902191122 | 56 | 163 | 3.5 | 17.4 | 0.09 | 0.40 | 0.40 | 92 | 1005.9 |
| 20260902190609 | 57 | 281 | 0.0 | 17.4 | 0.10 | 0.39 | 0.39 | 92 | 1005.7 |
| 20260902190148 | 57 | 219 | 4.3 | 17.4 | 0.10 | 0.39 | 0.39 | 92 | 1005.7 |
| 20260902190056 | 57 | 219 | 4.3 | 17.4 | 0.10 | 0.39 | 0.39 | 92 | 1005.7 |
| 20260902185543 | 57 | 254 | 0.9 | 12.2 | 0.11 | 0.38 | 0.38 | 92 | 1005.7 |
| 20260902185030 | 57 | 277 | 2.6 | 11.3 | 0.11 | 0.37 | 0.37 | 92 | 1005.8 |
| 20260902184004 | 56 | 0 | 3.5 | 8.7 | 0.13 | 0.36 | 0.36 | 92 | 1005.6 |
| 20260902183451 | 57 | 0 | 0.0 | 7.8 | 0.12 | 0.34 | 0.34 | 92 | 1005.6 |
| 20260902182938 | 57 | 288 | 0.0 | 7.8 | 0.11 | 0.33 | 0.33 | 92 | 1005.5 |
| 20260902182425 | 57 | 183 | 0.9 | 7.8 | 0.11 | 0.33 | 0.33 | 92 | 1005.3 |
| 20260902181912 | 57 | 0 | 0.0 | 7.0 | 0.10 | 0.32 | 0.32 | 92 | 1005.4 |
| 20260902181359 | 57 | 152 | 0.0 | 5.2 | 0.10 | 0.31 | 0.31 | 92 | 1005.2 |
| 20260902180846 | 56 | 194 | 0.0 | 13.9 | 0.08 | 0.31 | 0.31 | 92 | 1005.1 |
| 20260902175820 | 56 | 296 | 4.3 | 13.9 | 0.06 | 0.29 | 0.29 | 91 | 1005.0 |
| 20260902175308 | 57 | 217 | 2.6 | 13.0 | 0.06 | 0.27 | 0.27 | 91 | 1004.9 |
| 20260902174754 | 56 | 180 | 0.9 | 11.3 | 0.04 | 0.25 | 0.25 | 91 | 1004.9 |
| 20260902174241 | 56 | 149 | 0.0 | 4.3 | 0.04 | 0.23 | 0.23 | 91 | 1004.9 |
| 20260902173728 | 57 | 175 | 1.7 | 13.9 | 0.03 | 0.22 | 0.22 | 91 | 1004.8 |
| 20260902173215 | 57 | 0 | 0.0 | 13.9 | 0.03 | 0.22 | 0.22 | 91 | 1004.7 |
| 20260902172149 | 57 | 144 | 2.6 | 12.2 | 0.04 | 0.22 | 0.21 | 91 | 1004.7 |
| 20260902171636 | 57 | 168 | 6.1 | 12.2 | 0.05 | 0.22 | 0.21 | 91 | 1004.6 |
| 20260902171123 | 57 | 212 | 1.7 | 9.6 | 0.05 | 0.22 | 0.21 | 91 | 1004.6 |
| 20260902170609 | 56 | 135 | 0.9 | 8.7 | 0.08 | 0.22 | 0.21 | 91 | 1004.6 |
| 20260902170057 | 56 | 259 | 0.9 | 8.7 | 0.08 | 0.22 | 0.21 | 91 | 1004.4 |
| 20260902165544 | 57 | 135 | 3.5 | 8.7 | 0.09 | 0.20 | 0.20 | 91 | 1004.7 |
| 20260902165031 | 56 | 159 | 0.0 | 6.1 | 0.09 | 0.20 | 0.20 | 91 | 1004.7 |
| 20260902164517 | 57 | 0 | 1.7 | 6.1 | 0.09 | 0.19 | 0.19 | 91 | 1004.6 |
| 20260902164005 | 56 | 0 | 0.0 | 6.1 | 0.09 | 0.19 | 0.19 | 91 | 1004.6 |
| 20260902163451 | 56 | 0 | 1.7 | 6.1 | 0.09 | 0.19 | 0.19 | 91 | 1004.6 |
| 20260902162939 | 56 | 85 | 0.0 | 2.6 | 0.10 | 0.18 | 0.18 | 90 | 1004.8 |
| 20260902162427 | 55 | 154 | 0.0 | 11.3 | 0.10 | 0.18 | 0.18 | 90 | 1004.9 |
| 20260902161912 | 57 | 260 | 0.0 | 11.3 | 0.10 | 0.17 | 0.17 | 90 | 1004.9 |
| 20260902161359 | 56 | 78 | 3.5 | 11.3 | 0.10 | 0.16 | 0.16 | 90 | 1005.1 |
| 20260902160846 | 56 | 133 | 0.0 | 7.0 | 0.07 | 0.15 | 0.15 | 90 | 1005.3 |
| 20260902160333 | 56 | 208 | 1.7 | 5.2 | 0.07 | 0.14 | 0.14 | 90 | 1005.5 |
| 20260902155820 | 56 | 238 | 0.9 | 10.4 | 0.06 | 0.13 | 0.13 | 89 | 1005.5 |
| 20260902155307 | 57 | 177 | 0.9 | 10.4 | 0.06 | 0.12 | 0.12 | 89 | 1005.5 |
| 20260902154241 | 57 | 165 | 0.0 | 7.8 | 0.07 | 0.10 | 0.10 | 89 | 1005.8 |
| 20260902153215 | 57 | 0 | 0.0 | 0.0 | 0.07 | 0.09 | 0.09 | 88 | 1005.8 |
| 20260902152702 | 56 | 88 | 0.0 | 5.2 | 0.06 | 0.08 | 0.08 | 88 | 1005.9 |
| 20260902152149 | 57 | 88 | 0.0 | 5.2 | 0.06 | 0.07 | 0.07 | 87 | 1005.9 |
| 20260902151636 | 56 | 196 | 0.0 | 5.2 | 0.05 | 0.07 | 0.07 | 87 | 1006.0 |
| 20260902150057 | 57 | 189 | 2.6 | 13.0 | 0.05 | 0.07 | 0.06 | 85 | 1006.1 |
| 20260902145544 | 57 | 172 | 0.0 | 9.6 | 0.04 | 0.05 | 0.05 | 85 | 1006.0 |
| 20260902145031 | 57 | 259 | 0.0 | 9.6 | 0.04 | 0.05 | 0.05 | 84 | 1006.2 |
| 20260902144518 | 58 | 166 | 0.9 | 8.7 | 0.02 | 0.04 | 0.04 | 83 | 1006.2 |
| 20260902144007 | 58 | 197 | 4.3 | 8.7 | 0.02 | 0.03 | 0.03 | 82 | 1006.3 |
| 20260902143453 | 59 | 0 | 0.0 | 7.8 | 0.01 | 0.03 | 0.03 | 82 | 1006.1 |
| 20260902142939 | 59 | 168 | 1.7 | 10.4 | 0.01 | 0.02 | 0.02 | 81 | 1006.0 |
| 20260902142426 | 59 | 85 | 0.9 | 10.4 | 0.01 | 0.02 | 0.01 | 81 | 1006.0 |
| 20260902141913 | 60 | 179 | 3.5 | 10.4 | 0.01 | 0.02 | 0.01 | 80 | 1006.0 |
| 20260902141401 | 61 | 119 | 0.9 | 8.7 | 0.01 | 0.02 | 0.01 | 80 | 1006.0 |
| 20260902140847 | 61 | 207 | 0.9 | 8.7 | 0.01 | 0.02 | 0.01 | 79 | 1006.0 |
| 20260902140335 | 61 | 238 | 0.9 | 18.2 | 0.01 | 0.02 | 0.01 | 80 | 1006.0 |
| 20260902135821 | 61 | 183 | 2.6 | 18.2 | 0.01 | 0.01 | 0.01 | 80 | 1006.1 |
| 20260902135308 | 60 | 92 | 3.5 | 16.5 | 0.01 | 0.01 | 0.01 | 80 | 1006.1 |
| 20260902134755 | 60 | 210 | 7.0 | 13.9 | 0.01 | 0.01 | 0.01 | 81 | 1006.2 |
| 20260902134242 | 60 | 103 | 2.6 | 10.4 | 0.01 | 0.01 | 0.01 | 82 | 1006.2 |
| 20260902133729 | 61 | 239 | 3.5 | 17.4 | 0.01 | 0.01 | 0.01 | 82 | 1006.3 |
| 20260902133216 | 60 | 201 | 5.2 | 17.4 | 0.01 | 0.01 | 0.01 | 83 | 1006.3 |
| 20260902132703 | 59 | 165 | 6.1 | 17.4 | 0.00 | 0.01 | 0.01 | 83 | 1006.4 |
| 20260902132151 | 59 | 126 | 4.3 | 10.4 | 0.00 | 0.01 | 0.00 | 84 | 1006.5 |
| 20260902131637 | 59 | 127 | 0.0 | 12.2 | 0.00 | 0.01 | 0.00 | 84 | 1006.5 |
| 20260902131126 | 59 | 268 | 0.9 | 12.2 | 0.00 | 0.01 | 0.00 | 84 | 1006.6 |
| 20260902130611 | 58 | 170 | 2.6 | 12.2 | 0.00 | 0.01 | 0.00 | 85 | 1006.7 |
| 20260902130059 | 58 | 147 | 3.5 | 11.3 | 0.00 | 0.01 | 0.00 | 85 | 1006.8 |
| 20260902125546 | 58 | 149 | 1.7 | 11.3 | 0.00 | 0.01 | 0.00 | 85 | 1006.7 |
| 20260902124519 | 58 | 0 | 0.0 | 0.0 | 0.00 | 0.01 | 0.00 | 85 | 1007.1 |
| 20260902123453 | 57 | 187 | 0.9 | 10.4 | 0.00 | 0.01 | 0.00 | 85 | 1007.3 |
| 20260902122940 | 58 | 319 | 0.0 | 10.4 | 0.00 | 0.01 | 0.00 | 85 | 1007.3 |
| 20260902122427 | 57 | 72 | 0.0 | 8.7 | 0.00 | 0.01 | 0.00 | 85 | 1007.4 |
| 20260902121914 | 58 | 141 | 0.0 | 8.7 | 0.00 | 0.01 | 0.00 | 84 | 1007.6 |
| 20260902121402 | 58 | 154 | 0.0 | 7.0 | 0.00 | 0.01 | 0.00 | 84 | 1007.7 |
| 20260902120848 | 58 | 158 | 0.0 | 12.2 | 0.00 | 0.01 | 0.00 | 83 | 1007.8 |
| 20260902120335 | 58 | 274 | 0.9 | 12.2 | 0.00 | 0.01 | 0.00 | 82 | 1007.9 |
| 20260902115822 | 59 | 187 | 3.5 | 12.2 | 0.00 | 0.02 | 0.00 | 81 | 1007.8 |
| 20260902115310 | 59 | 177 | 0.9 | 7.8 | 0.00 | 0.02 | 0.00 | 81 | 1007.9 |
| 20260902114756 | 60 | 249 | 0.0 | 17.4 | 0.00 | 0.02 | 0.00 | 80 | 1007.8 |
| 20260902114243 | 61 | 183 | 6.1 | 17.4 | 0.00 | 0.02 | 0.00 | 78 | 1008.0 |
| 20260902113217 | 62 | 172 | 4.3 | 15.6 | 0.00 | 0.02 | 0.00 | 78 | 1007.9 |
| 20260902112704 | 61 | 226 | 4.3 | 15.6 | 0.00 | 0.02 | 0.00 | 79 | 1008.0 |
| 20260902111638 | 61 | 261 | 0.9 | 12.2 | 0.00 | 0.02 | 0.00 | 79 | 1008.0 |
| 20260902111125 | 61 | 187 | 2.6 | 12.2 | 0.00 | 0.02 | 0.00 | 79 | 1008.1 |
| 20260902110612 | 61 | 184 | 2.6 | 7.0 | 0.00 | 0.02 | 0.00 | 79 | 1008.0 |
| 20260902110149 | 62 | 187 | 1.7 | 12.2 | 0.00 | 0.02 | 0.00 | 79 | 1008.2 |
| 20260902110059 | 62 | 187 | 1.7 | 12.2 | 0.00 | 0.02 | 0.00 | 79 | 1008.2 |
| 20260902105546 | 62 | 249 | 0.0 | 12.2 | 0.00 | 0.02 | 0.00 | 79 | 1008.2 |
| 20260902105033 | 62 | 250 | 1.7 | 12.2 | 0.00 | 0.02 | 0.00 | 79 | 1008.3 |
| 20260902104520 | 62 | 112 | 0.9 | 8.7 | 0.00 | 0.02 | 0.00 | 79 | 1008.3 |
| 20260902104007 | 61 | 284 | 3.5 | 14.8 | 0.00 | 0.02 | 0.00 | 80 | 1008.5 |
| 20260902103454 | 61 | 274 | 3.5 | 14.8 | 0.00 | 0.02 | 0.00 | 80 | 1008.6 |
| 20260902102941 | 61 | 268 | 3.5 | 14.8 | 0.00 | 0.02 | 0.00 | 80 | 1008.7 |
| 20260902102430 | 61 | 175 | 4.3 | 11.3 | 0.00 | 0.02 | 0.00 | 81 | 1008.6 |
| 20260902101402 | 61 | 281 | 0.0 | 13.9 | 0.00 | 0.02 | 0.00 | 82 | 1008.9 |
| 20260902100849 | 61 | 72 | 7.0 | 13.9 | 0.00 | 0.02 | 0.00 | 82 | 1008.9 |
| 20260902100336 | 61 | 236 | 3.5 | 13.9 | 0.00 | 0.02 | 0.00 | 83 | 1008.9 |
| 20260902095823 | 60 | 207 | 5.2 | 9.6 | 0.00 | 0.02 | 0.00 | 84 | 1008.9 |
| 20260902095310 | 60 | 235 | 0.9 | 12.2 | 0.00 | 0.02 | 0.00 | 84 | 1009.0 |
| 20260902094757 | 60 | 170 | 2.6 | 12.2 | 0.00 | 0.02 | 0.00 | 85 | 1009.1 |
| 20260902094244 | 59 | 180 | 0.0 | 12.2 | 0.00 | 0.02 | 0.00 | 86 | 1009.1 |
| 20260902093731 | 59 | 173 | 0.9 | 7.8 | 0.00 | 0.02 | 0.00 | 86 | 1009.2 |
| 20260902093218 | 58 | 179 | 1.7 | 7.8 | 0.00 | 0.02 | 0.00 | 87 | 1009.3 |
| 20260902092705 | 58 | 217 | 0.9 | 11.3 | 0.00 | 0.02 | 0.00 | 87 | 1009.4 |
| 20260902091639 | 58 | 246 | 1.7 | 11.3 | 0.00 | 0.02 | 0.00 | 87 | 1009.6 |
| 20260902091126 | 58 | 277 | 0.9 | 9.6 | 0.00 | 0.02 | 0.00 | 87 | 1009.7 |
| 20260902090613 | 58 | 0 | 0.0 | 8.7 | 0.00 | 0.02 | 0.00 | 88 | 1009.8 |
| 20260902085547 | 58 | 326 | 1.7 | 7.8 | 0.00 | 0.02 | 0.00 | 88 | 1009.9 |
| 20260902085034 | 58 | 151 | 0.9 | 13.9 | 0.00 | 0.02 | 0.00 | 88 | 1010.0 |
| 20260902084521 | 58 | 221 | 0.9 | 13.9 | 0.00 | 0.02 | 0.00 | 88 | 1010.1 |
| 20260902084008 | 58 | 142 | 4.3 | 13.9 | 0.00 | 0.02 | 0.00 | 88 | 1010.3 |
| 20260902083455 | 58 | 240 | 3.5 | 13.0 | 0.00 | 0.02 | 0.00 | 88 | 1010.2 |
| 20260902082429 | 58 | 266 | 1.7 | 13.0 | 0.00 | 0.02 | 0.00 | 88 | 1010.4 |
| 20260902081403 | 58 | 161 | 1.7 | 13.9 | 0.00 | 0.02 | 0.00 | 88 | 1010.5 |
| 20260902080850 | 58 | 291 | 0.0 | 13.9 | 0.00 | 0.02 | 0.00 | 87 | 1010.5 |
| 20260902080337 | 58 | 203 | 4.3 | 13.9 | 0.00 | 0.02 | 0.00 | 87 | 1010.7 |
| 20260902075311 | 58 | 282 | 4.3 | 13.0 | 0.00 | 0.02 | 0.02 | 87 | 1010.5 |
| 20260902074758 | 58 | 282 | 1.7 | 9.6 | 0.00 | 0.02 | 0.02 | 87 | 1010.6 |
| 20260902074245 | 58 | 210 | 2.6 | 17.4 | 0.00 | 0.02 | 0.02 | 87 | 1010.6 |
| 20260902073732 | 59 | 196 | 4.3 | 17.4 | 0.00 | 0.02 | 0.02 | 86 | 1010.7 |
| 20260902073219 | 58 | 135 | 7.0 | 17.4 | 0.00 | 0.02 | 0.02 | 86 | 1010.7 |
| 20260902072706 | 59 | 245 | 4.3 | 10.4 | 0.00 | 0.02 | 0.02 | 86 | 1010.7 |
| 20260902072153 | 59 | 232 | 0.0 | 10.4 | 0.00 | 0.02 | 0.02 | 86 | 1010.7 |
| 20260902071640 | 59 | 135 | 2.6 | 7.0 | 0.00 | 0.02 | 0.02 | 86 | 1010.7 |
| 20260902071127 | 59 | 219 | 0.9 | 15.6 | 0.00 | 0.02 | 0.02 | 86 | 1010.7 |
| 20260902070614 | 58 | 158 | 1.7 | 15.6 | 0.00 | 0.02 | 0.02 | 86 | 1010.6 |
| 20260902070101 | 59 | 187 | 2.6 | 15.6 | 0.00 | 0.02 | 0.02 | 86 | 1010.7 |
| 20260902064522 | 59 | 257 | 4.3 | 9.6 | 0.00 | 0.02 | 0.02 | 87 | 1010.8 |
| 20260902064009 | 59 | 271 | 2.6 | 9.6 | 0.00 | 0.02 | 0.02 | 87 | 1010.8 |
| 20260902063456 | 59 | 222 | 0.0 | 7.0 | 0.00 | 0.02 | 0.02 | 87 | 1010.8 |
| 20260902062430 | 59 | 259 | 0.0 | 13.9 | 0.00 | 0.02 | 0.02 | 86 | 1010.9 |
| 20260902061917 | 59 | 219 | 4.3 | 13.9 | 0.00 | 0.02 | 0.02 | 86 | 1011.0 |
| 20260902061404 | 59 | 259 | 3.5 | 8.7 | 0.00 | 0.02 | 0.02 | 86 | 1011.1 |
| 20260902060851 | 60 | 305 | 3.5 | 8.7 | 0.00 | 0.02 | 0.02 | 85 | 1011.1 |
| 20260902060338 | 60 | 152 | 1.7 | 13.9 | 0.00 | 0.02 | 0.02 | 85 | 1011.1 |
| 20260902055825 | 60 | 264 | 6.1 | 13.9 | 0.00 | 0.02 | 0.02 | 86 | 1011.2 |
| 20260902055312 | 60 | 280 | 0.0 | 13.9 | 0.00 | 0.02 | 0.02 | 86 | 1011.2 |
| 20260902054759 | 60 | 151 | 2.6 | 8.7 | 0.00 | 0.02 | 0.02 | 86 | 1011.2 |
| 20260902054246 | 60 | 225 | 2.6 | 7.8 | 0.00 | 0.02 | 0.02 | 86 | 1011.2 |
| 20260902053733 | 59 | 138 | 0.9 | 10.4 | 0.00 | 0.02 | 0.02 | 86 | 1011.3 |
| 20260902053220 | 60 | 205 | 0.0 | 10.4 | 0.00 | 0.02 | 0.02 | 86 | 1011.4 |
| 20260902052707 | 60 | 280 | 3.5 | 10.4 | 0.00 | 0.02 | 0.02 | 86 | 1011.4 |
| 20260902052154 | 60 | 182 | 5.2 | 10.4 | 0.00 | 0.02 | 0.02 | 86 | 1011.5 |
| 20260902051641 | 60 | 224 | 0.0 | 10.4 | 0.00 | 0.02 | 0.02 | 86 | 1011.5 |
| 20260902051128 | 59 | 210 | 0.0 | 8.7 | 0.00 | 0.02 | 0.02 | 87 | 1011.5 |
| 20260902050615 | 59 | 193 | 2.6 | 6.1 | 0.00 | 0.02 | 0.02 | 87 | 1011.4 |
| 20260902045549 | 60 | 0 | 0.0 | 12.2 | 0.00 | 0.02 | 0.02 | 87 | 1011.5 |
| 20260902045036 | 60 | 238 | 3.5 | 12.2 | 0.00 | 0.02 | 0.02 | 87 | 1011.6 |
| 20260902044523 | 59 | 0 | 0.0 | 8.7 | 0.00 | 0.02 | 0.02 | 87 | 1011.7 |
| 20260902044010 | 59 | 205 | 6.1 | 11.3 | 0.00 | 0.02 | 0.02 | 87 | 1011.7 |
| 20260902043456 | 60 | 235 | 0.9 | 11.3 | 0.00 | 0.02 | 0.02 | 87 | 1011.8 |
| 20260902042943 | 60 | 239 | 1.7 | 11.3 | 0.00 | 0.02 | 0.02 | 87 | 1011.7 |
| 20260902042430 | 60 | 169 | 0.9 | 9.6 | 0.00 | 0.02 | 0.02 | 87 | 1011.7 |
| 20260902041917 | 59 | 179 | 1.7 | 9.6 | 0.00 | 0.02 | 0.02 | 88 | 1011.7 |
| 20260902041404 | 59 | 232 | 2.6 | 7.8 | 0.00 | 0.02 | 0.02 | 88 | 1011.7 |
| 20260902040851 | 59 | 149 | 0.9 | 7.8 | 0.00 | 0.02 | 0.02 | 88 | 1011.6 |
| 20260902035312 | 59 | 198 | 2.6 | 13.0 | 0.00 | 0.02 | 0.02 | 89 | 1011.6 |
| 20260902034759 | 58 | 163 | 2.6 | 9.6 | 0.00 | 0.02 | 0.02 | 89 | 1011.7 |
| 20260902034246 | 59 | 112 | 2.6 | 9.6 | 0.00 | 0.02 | 0.02 | 89 | 1011.6 |
| 20260902033733 | 59 | 159 | 0.9 | 13.0 | 0.00 | 0.02 | 0.02 | 89 | 1011.7 |
| 20260902033221 | 59 | 263 | 2.6 | 13.0 | 0.00 | 0.02 | 0.02 | 89 | 1011.6 |
| 20260902032707 | 59 | 221 | 5.2 | 13.0 | 0.00 | 0.02 | 0.02 | 89 | 1011.7 |
| 20260902032154 | 59 | 239 | 0.0 | 12.2 | 0.00 | 0.02 | 0.02 | 89 | 1011.6 |
| 20260902031641 | 59 | 239 | 0.9 | 15.6 | 0.00 | 0.02 | 0.02 | 89 | 1011.6 |
| 20260902031128 | 59 | 296 | 7.0 | 15.6 | 0.00 | 0.02 | 0.02 | 89 | 1011.6 |
| 20260902030615 | 58 | 273 | 0.0 | 15.6 | 0.00 | 0.02 | 0.02 | 89 | 1011.6 |
| 20260902025549 | 59 | 221 | 6.1 | 13.9 | 0.00 | 0.02 | 0.02 | 89 | 1011.6 |
| 20260902024524 | 59 | 317 | 4.3 | 13.9 | 0.00 | 0.02 | 0.02 | 89 | 1011.7 |
| 20260902024010 | 59 | 134 | 6.1 | 13.9 | 0.00 | 0.02 | 0.02 | 89 | 1011.7 |
| 20260902023457 | 59 | 183 | 2.6 | 12.2 | 0.00 | 0.02 | 0.02 | 89 | 1011.7 |
| 20260902022945 | 59 | 282 | 0.0 | 12.2 | 0.00 | 0.02 | 0.02 | 89 | 1011.7 |
| 20260902022432 | 59 | 173 | 3.5 | 12.2 | 0.00 | 0.02 | 0.02 | 89 | 1011.7 |
| 20260902021919 | 59 | 253 | 2.6 | 10.4 | 0.00 | 0.02 | 0.02 | 88 | 1011.6 |
| 20260902021406 | 60 | 107 | 0.0 | 10.4 | 0.00 | 0.02 | 0.02 | 88 | 1011.6 |
| 20260902020853 | 60 | 267 | 4.3 | 10.4 | 0.00 | 0.02 | 0.02 | 88 | 1011.7 |
| 20260902020340 | 61 | 180 | 1.7 | 9.6 | 0.00 | 0.02 | 0.02 | 88 | 1011.6 |
| 20260902015314 | 61 | 274 | 0.0 | 4.3 | 0.00 | 0.02 | 0.02 | 88 | 1011.4 |
| 20260902014801 | 61 | 170 | 0.0 | 13.0 | 0.00 | 0.02 | 0.02 | 88 | 1011.3 |
| 20260902014248 | 61 | 280 | 0.0 | 13.0 | 0.00 | 0.02 | 0.02 | 88 | 1011.3 |
| 20260902013737 | 62 | 273 | 2.6 | 13.0 | 0.00 | 0.02 | 0.02 | 88 | 1011.2 |
| 20260902013222 | 62 | 190 | 1.7 | 7.8 | 0.00 | 0.02 | 0.02 | 88 | 1011.3 |
| 20260902012709 | 62 | 190 | 0.0 | 11.3 | 0.00 | 0.02 | 0.02 | 89 | 1011.2 |
| 20260902011643 | 61 | 225 | 4.3 | 11.3 | 0.00 | 0.02 | 0.02 | 89 | 1011.3 |
| 20260902011130 | 61 | 274 | 4.3 | 7.0 | 0.00 | 0.02 | 0.02 | 89 | 1011.4 |
| 20260902010617 | 61 | 298 | 4.3 | 10.4 | 0.00 | 0.02 | 0.02 | 89 | 1011.4 |
| 20260902005551 | 60 | 348 | 0.9 | 10.4 | 0.00 | 0.02 | 0.02 | 89 | 1011.4 |
| 20260902005038 | 61 | 0 | 0.0 | 13.0 | 0.00 | 0.02 | 0.02 | 89 | 1011.4 |
| 20260902004525 | 60 | 296 | 1.7 | 13.0 | 0.00 | 0.02 | 0.02 | 89 | 1011.4 |
| 20260902004012 | 61 | 259 | 4.3 | 13.0 | 0.00 | 0.02 | 0.02 | 89 | 1011.4 |
| 20260902003459 | 61 | 0 | 2.6 | 10.4 | 0.00 | 0.02 | 0.02 | 89 | 1011.4 |
| 20260902002946 | 61 | 252 | 2.6 | 9.6 | 0.00 | 0.02 | 0.02 | 89 | 1011.5 |
| 20260902001920 | 60 | 285 | 0.0 | 9.6 | 0.00 | 0.02 | 0.02 | 89 | 1011.5 |
| 20260902001407 | 61 | 256 | 5.2 | 9.6 | 0.00 | 0.02 | 0.02 | 89 | 1011.6 |
| 20260902000854 | 61 | 233 | 0.0 | 9.6 | 0.00 | 0.02 | 0.02 | 89 | 1011.5 |
| 20260902000341 | 61 | 260 | 0.9 | 9.6 | 0.00 | 0.02 | 0.02 | 89 | 1011.6 |
| 20260901235315 | 60 | 306 | 2.6 | 7.0 | 0.00 | 0.02 | 0.02 | 89 | 1011.8 |
| 20260901234802 | 60 | 267 | 0.9 | 5.2 | 0.00 | 0.02 | 0.02 | 89 | 1011.8 |
| 20260901234249 | 60 | 280 | 3.5 | 9.6 | 0.00 | 0.02 | 0.02 | 88 | 1011.8 |
| 20260901233223 | 61 | 253 | 1.7 | 9.6 | 0.00 | 0.02 | 0.02 | 89 | 1011.9 |
| 20260901232710 | 61 | 271 | 0.0 | 8.7 | 0.00 | 0.02 | 0.02 | 89 | 1012.0 |
| 20260901232157 | 60 | 261 | 0.0 | 8.7 | 0.00 | 0.02 | 0.02 | 89 | 1011.9 |
| 20260901231644 | 60 | 250 | 2.6 | 7.8 | 0.00 | 0.02 | 0.02 | 88 | 1012.0 |
| 20260901231130 | 60 | 0 | 0.0 | 11.3 | 0.00 | 0.02 | 0.02 | 89 | 1012.0 |
| 20260901230618 | 60 | 134 | 1.7 | 11.3 | 0.00 | 0.02 | 0.02 | 88 | 1012.1 |
| 20260901230106 | 61 | 232 | 1.7 | 11.3 | 0.00 | 0.02 | 0.02 | 88 | 1012.1 |
| 20260901225552 | 60 | 196 | 0.0 | 8.7 | 0.00 | 0.02 | 0.02 | 88 | 1012.1 |
| 20260901225038 | 61 | 0 | 0.0 | 8.7 | 0.00 | 0.02 | 0.02 | 89 | 1012.2 |
| 20260901224525 | 61 | 0 | 2.6 | 10.4 | 0.00 | 0.02 | 0.02 | 88 | 1012.2 |
| 20260901224012 | 61 | 301 | 0.0 | 10.4 | 0.00 | 0.02 | 0.02 | 88 | 1012.2 |
| 20260901223459 | 61 | 0 | 0.9 | 10.4 | 0.00 | 0.02 | 0.02 | 88 | 1012.1 |
| 20260901222947 | 61 | 222 | 2.6 | 9.6 | 0.00 | 0.02 | 0.02 | 88 | 1012.1 |
| 20260901222433 | 61 | 273 | 1.7 | 9.6 | 0.00 | 0.02 | 0.02 | 87 | 1012.1 |
| 20260901221920 | 62 | 250 | 2.6 | 7.0 | 0.00 | 0.02 | 0.02 | 87 | 1012.2 |
| 20260901221408 | 62 | 294 | 4.3 | 10.4 | 0.00 | 0.02 | 0.02 | 87 | 1012.1 |
| 20260901220854 | 62 | 249 | 3.5 | 10.4 | 0.00 | 0.02 | 0.02 | 87 | 1012.1 |
| 20260901215828 | 62 | 177 | 3.5 | 9.6 | 0.00 | 0.02 | 0.02 | 87 | 1012.1 |
| 20260901214802 | 62 | 322 | 0.0 | 9.6 | 0.00 | 0.02 | 0.02 | 88 | 1012.0 |
| 20260901214249 | 62 | 217 | 5.2 | 9.6 | 0.00 | 0.02 | 0.02 | 87 | 1012.0 |
| 20260901213736 | 62 | 260 | 1.7 | 9.6 | 0.00 | 0.02 | 0.02 | 88 | 1012.0 |
| 20260901213223 | 62 | 242 | 0.0 | 11.3 | 0.00 | 0.02 | 0.02 | 88 | 1011.9 |
| 20260901212710 | 62 | 263 | 4.3 | 11.3 | 0.00 | 0.02 | 0.02 | 88 | 1011.9 |
| 20260901212157 | 62 | 250 | 5.2 | 11.3 | 0.00 | 0.02 | 0.02 | 88 | 1011.9 |
| 20260901211644 | 62 | 309 | 3.5 | 10.4 | 0.00 | 0.02 | 0.02 | 88 | 1011.8 |
| 20260901211131 | 63 | 190 | 2.6 | 10.4 | 0.00 | 0.02 | 0.02 | 88 | 1011.9 |
| 20260901210618 | 62 | 266 | 0.9 | 9.6 | 0.00 | 0.02 | 0.02 | 88 | 1011.9 |
| 20260901210105 | 62 | 257 | 3.5 | 9.6 | 0.00 | 0.02 | 0.02 | 88 | 1011.9 |
| 20260901205039 | 62 | 256 | 3.5 | 6.1 | 0.00 | 0.02 | 0.02 | 88 | 1011.8 |
| 20260901204526 | 62 | 0 | 0.0 | 6.1 | 0.00 | 0.02 | 0.02 | 89 | 1011.8 |
| 20260901204013 | 62 | 266 | 5.2 | 9.6 | 0.00 | 0.02 | 0.02 | 88 | 1011.9 |
| 20260901203500 | 61 | 253 | 0.9 | 9.6 | 0.00 | 0.02 | 0.02 | 89 | 1012.0 |
| 20260901202947 | 61 | 208 | 1.7 | 9.6 | 0.00 | 0.02 | 0.02 | 89 | 1012.0 |
| 20260901202434 | 61 | 270 | 0.0 | 8.7 | 0.00 | 0.02 | 0.02 | 89 | 1012.0 |
| 20260901201921 | 60 | 271 | 3.5 | 9.6 | 0.00 | 0.02 | 0.02 | 89 | 1012.0 |
| 20260901201408 | 61 | 263 | 5.2 | 9.6 | 0.00 | 0.02 | 0.02 | 89 | 1012.0 |
| 20260901200855 | 62 | 268 | 0.9 | 9.6 | 0.00 | 0.02 | 0.02 | 89 | 1011.9 |